Weather History for Pittsfield, IL

Change the Weather History Date:

Monday, December 31, 2012

  Actual Average (KUIN) Record (KUIN)
Temperature  
Mean Temperature 30 °F 27 °F  
Max Temperature 39 °F 35 °F 64 °F (1951)
Min Temperature 22 °F 19 °F -10 °F (1976)
Degree Days  
Heating Degree Days 34 38  
Month to date heating degree days 1091  
Since 1 July heating degree days 2191  
Cooling Degree Days 0 0  
Month to date cooling degree days 0  
Year to date cooling degree days 1094  
Moisture  
Dew Point 27 °F    
Average Humidity 81    
Maximum Humidity 96    
Minimum Humidity 47    
Precipitation  
Precipitation 0.06 in 0.06 in 1.42 in (2010)
Month to date precipitation 2.25  
Year to date precipitation 37.33  
Sea Level Pressure  
Sea Level Pressure 30.13 in    
Wind  
Wind Speed 9 mph (West)    
Max Wind Speed 15 mph    
Max Gust Speed 20 mph    
Visibility 7 miles    
Events Rain , Snow    
T = Trace of Precipitation, MM = Missing Value Source: NWS Daily Summary

Daily Weather History Graph

Daily Weather History Graph

Search for Another Location

Airport:

Trip Planner

Search our weather history database for the weather conditions in past years. The results will help you decide how hot, cold, wet, or windy it might be!

Date:

Astronomy

Dec. 31, 2012 Rise Set
Actual Time 7:23 AM CST 4:49 PM CST
Civil Twilight 6:53 AM CST 5:19 PM CST
Nautical Twilight 6:19 AM CST 5:53 PM CST
Astronomical Twilight 5:47 AM CST 6:25 PM CST
Moon 8:19 PM CST (12/31) 9:06 AM CST (12/31)
Length of Visible Light 10h 25m
Length of Day
9h 25m
Waning Gibbous, 90% of the Moon is Illuminated
Dec 31
Waning Gibbous
Jan 4
Last Quarter
Jan 11
New
Jan 18
First Quarter
Jan 26
Full

Hourly Weather History & Observations

Time (CST) Temp. Windchill Dew Point Humidity Pressure Visibility Wind Dir Wind Speed Gust Speed Precip Events Conditions
12:15 AM 36.7 °F 28.4 °F 24.6 °F 62% 30.15 in 10.0 mi SSW 12.7 mph 18.4 mph N/A   Clear
12:35 AM 36.5 °F 28.7 °F 24.4 °F 62% 30.14 in 10.0 mi South 11.5 mph 17.3 mph N/A   Clear
12:55 AM 36.7 °F 28.4 °F 24.1 °F 60% 30.16 in 10.0 mi SSW 12.7 mph 16.1 mph N/A   Clear
1:15 AM 37.4 °F 29.3 °F 23.2 °F 57% 30.16 in 10.0 mi SSW 12.7 mph - N/A   Clear
1:35 AM 37.6 °F 30.0 °F 23.2 °F 56% 30.16 in 10.0 mi SSW 11.5 mph 17.3 mph N/A   Clear
1:55 AM 37.9 °F 31.5 °F 22.8 °F 55% 30.16 in 10.0 mi SSW 9.2 mph 16.1 mph N/A   Clear
2:15 AM 38.5 °F 31.6 °F 21.6 °F 51% 30.16 in 10.0 mi SW 10.4 mph 19.6 mph N/A   Clear
2:35 AM 38.8 °F 32.1 °F 21.4 °F 50% 30.16 in 10.0 mi SW 10.4 mph 16.1 mph N/A   Clear
2:55 AM 38.7 °F 31.8 °F 21.0 °F 49% 30.16 in 10.0 mi SW 10.4 mph - N/A   Clear
3:15 AM 39.2 °F 31.6 °F 20.5 °F 47% 30.16 in 10.0 mi WSW 12.7 mph 19.6 mph N/A   Scattered Clouds
3:35 AM 38.8 °F 31.6 °F 20.8 °F 48% 30.15 in 10.0 mi SW 11.5 mph - N/A   Scattered Clouds
3:55 AM 38.3 °F 31.4 °F 21.7 °F 51% 30.14 in 10.0 mi SW 10.4 mph - N/A   Scattered Clouds
4:15 AM 38.3 °F 31.9 °F 21.7 °F 51% 30.13 in 10.0 mi SW 9.2 mph 16.1 mph N/A   Scattered Clouds
4:35 AM 37.9 °F 31.5 °F 22.3 °F 53% 30.13 in 10.0 mi SW 9.2 mph - N/A   Scattered Clouds
4:55 AM 37.8 °F 30.2 °F 22.6 °F 54% 30.13 in 10.0 mi SSW 11.5 mph 16.1 mph N/A   Mostly Cloudy
5:15 AM 37.6 °F 31.0 °F 22.6 °F 55% 30.13 in 10.0 mi SW 9.2 mph - N/A   Mostly Cloudy
5:35 AM 37.8 °F 30.7 °F 22.6 °F 54% 30.14 in 10.0 mi SSW 10.4 mph - N/A   Mostly Cloudy
5:55 AM 37.6 °F 30.5 °F 22.8 °F 55% 30.14 in 10.0 mi SW 10.4 mph - N/A   Scattered Clouds
6:15 AM 37.8 °F 30.7 °F 22.5 °F 54% 30.14 in 10.0 mi WSW 10.4 mph - N/A   Mostly Cloudy
6:35 AM 37.9 °F 30.0 °F 22.5 °F 54% 30.14 in 10.0 mi SW 12.7 mph - N/A   Overcast
6:55 AM 35.1 °F 26.4 °F 30.0 °F 82% 30.14 in 5.0 mi WSW 12.7 mph 18.4 mph N/A Rain Light Rain
7:15 AM 34.0 °F 24.2 °F 31.6 °F 91% 30.14 in 1.8 mi WSW 15.0 mph 19.6 mph N/A Snow Light Snow
7:35 AM 33.8 °F 24.8 °F 32.0 °F 93% 30.13 in 1.8 mi WSW 12.7 mph - N/A Snow Light Snow
7:55 AM 33.8 °F 25.8 °F 32.0 °F 93% 30.13 in 1.2 mi WSW 10.4 mph - N/A Snow Light Snow
8:15 AM 33.3 °F 25.7 °F 32.0 °F 95% 30.14 in 1.0 mi WSW 9.2 mph - N/A Snow Light Snow
8:35 AM 33.1 °F 25.5 °F 32.0 °F 96% 30.15 in 0.8 mi SW 9.2 mph 16.1 mph N/A Snow Light Snow
8:55 AM 33.1 °F 24.9 °F 32.0 °F 96% 30.16 in 0.5 mi SW 10.4 mph - N/A Snow Snow
9:15 AM 33.1 °F 26.9 °F 32.0 °F 96% 30.15 in 0.8 mi SW 6.9 mph - N/A   Overcast
9:35 AM 33.1 °F 28.7 °F 32.0 °F 96% 30.15 in 1.2 mi WSW 4.6 mph - N/A Snow Light Snow
9:55 AM 33.3 °F 28.9 °F 32.0 °F 95% 30.14 in 1.2 mi WSW 4.6 mph - N/A Snow Light Snow
10:15 AM 33.3 °F 27.1 °F 32.0 °F 95% 30.15 in 1.0 mi SW 6.9 mph - N/A Snow Light Snow
10:35 AM 33.8 °F 27.7 °F 32.2 °F 94% 30.16 in 0.8 mi SW 6.9 mph - 0.01 in Snow Light Snow
10:55 AM 33.6 °F 27.5 °F 32.2 °F 94% 30.16 in 0.8 mi SW 6.9 mph - 0.01 in   Overcast
11:15 AM 33.8 °F 28.6 °F 32.4 °F 94% 30.14 in 1.0 mi WSW 5.8 mph - 0.01 in   Overcast
11:35 AM 33.6 °F 28.4 °F 32.4 °F 95% 30.14 in 0.8 mi WSW 5.8 mph - 0.01 in Snow Light Snow
11:55 AM 33.8 °F 27.7 °F 32.4 °F 94% 30.13 in 0.5 mi WSW 6.9 mph - 0.02 in Snow Snow
12:15 PM 33.4 °F 27.3 °F 32.2 °F 95% 30.12 in 0.8 mi WSW 6.9 mph - N/A Snow Light Snow
12:35 PM 33.4 °F 28.1 °F 32.2 °F 95% 30.11 in 0.8 mi West 5.8 mph - 0.01 in Snow Light Snow
12:55 PM 33.6 °F 29.4 °F 32.2 °F 94% 30.10 in 0.8 mi WSW 4.6 mph - 0.01 in Snow Light Snow
1:15 PM 33.8 °F - 32.4 °F 94% 30.09 in 0.8 mi Calm Calm - 0.01 in Snow Light Snow
1:35 PM 33.8 °F - 32.5 °F 95% 30.10 in 1.0 mi Calm Calm - 0.01 in Snow Light Snow
1:55 PM 33.8 °F 30.8 °F 32.2 °F 94% 30.10 in 7.0 mi West 3.5 mph - 0.02 in Rain Light Rain
2:15 PM 33.8 °F 30.8 °F 32.0 °F 93% 30.11 in 7.0 mi West 3.5 mph - N/A Rain Light Rain
2:35 PM 34.0 °F - 32.0 °F 92% 30.11 in 7.0 mi Calm Calm - N/A Rain Light Rain
2:55 PM 34.0 °F 31.0 °F 32.0 °F 92% 30.09 in 7.0 mi WNW 3.5 mph - N/A Rain Light Rain
3:15 PM 33.8 °F 30.8 °F 32.0 °F 93% 30.09 in 10.0 mi WNW 3.5 mph - N/A Rain Light Rain
3:35 PM 33.8 °F - 32.0 °F 93% 30.10 in 10.0 mi Calm Calm - N/A   Light Drizzle
3:55 PM 33.4 °F 28.1 °F 31.8 °F 94% 30.09 in 10.0 mi North 5.8 mph - N/A   Overcast
4:15 PM 32.0 °F 25.6 °F 30.7 °F 95% 30.09 in 5.0 mi North 6.9 mph - N/A   Overcast
4:35 PM 31.6 °F 23.7 °F 29.8 °F 93% 30.09 in 4.0 mi North 9.2 mph - N/A   Overcast
4:55 PM 30.4 °F 22.9 °F 28.4 °F 92% 30.10 in 5.0 mi North 8.1 mph - N/A   Overcast
5:15 PM 29.3 °F 20.8 °F 27.0 °F 91% 30.09 in 7.0 mi North 9.2 mph - N/A   Overcast
5:35 PM 28.8 °F 22.6 °F 26.2 °F 90% 30.11 in 10.0 mi NNW 5.8 mph - N/A   Overcast
5:55 PM 28.4 °F 23.3 °F 26.6 °F 93% 30.11 in 10.0 mi NNW 4.6 mph - N/A   Overcast
6:15 PM 28.2 °F 23.1 °F 25.5 °F 90% 30.10 in 10.0 mi NNW 4.6 mph - N/A   Overcast
6:35 PM 28.0 °F 22.8 °F 25.3 °F 90% 30.11 in 10.0 mi NNW 4.6 mph - N/A   Mostly Cloudy
6:55 PM 28.4 °F 22.2 °F 24.8 °F 86% 30.11 in 10.0 mi NNW 5.8 mph - N/A   Overcast
7:15 PM 27.1 °F 20.7 °F 24.8 °F 91% 30.12 in 10.0 mi NNW 5.8 mph - N/A   Overcast
7:35 PM 26.8 °F 19.3 °F 24.8 °F 92% 30.12 in 7.0 mi NW 6.9 mph - N/A   Overcast
7:55 PM 26.6 °F 19.1 °F 24.8 °F 93% 30.13 in 7.0 mi NW 6.9 mph - N/A   Overcast
8:15 PM 26.4 °F 18.0 °F 23.9 °F 90% 30.13 in 7.0 mi NNW 8.1 mph - N/A   Overcast
8:35 PM 26.2 °F 17.8 °F 23.9 °F 91% 30.13 in 7.0 mi NNW 8.1 mph - N/A   Overcast
8:55 PM 26.1 °F 17.6 °F 22.3 °F 86% 30.12 in 10.0 mi North 8.1 mph - N/A   Overcast
9:15 PM 25.2 °F 15.7 °F 20.1 °F 81% 30.13 in 10.0 mi North 9.2 mph - N/A   Overcast
9:35 PM 24.8 °F 16.9 °F 20.5 °F 84% 30.13 in 10.0 mi North 6.9 mph - N/A   Overcast
9:55 PM 24.6 °F 13.8 °F 20.5 °F 84% 30.13 in 10.0 mi North 11.5 mph - N/A   Overcast
10:15 PM 24.3 °F 15.4 °F 20.1 °F 84% 30.14 in 10.0 mi NNW 8.1 mph - N/A   Overcast
10:35 PM 23.7 °F 14.0 °F 19.6 °F 84% 30.15 in 10.0 mi NNW 9.2 mph - N/A   Overcast
10:55 PM 23.4 °F 14.3 °F 19.8 °F 86% 30.15 in 10.0 mi North 8.1 mph - N/A   Overcast
11:15 PM 22.8 °F 12.9 °F 18.5 °F 83% 30.15 in 10.0 mi North 9.2 mph - N/A   Overcast
11:35 PM 22.6 °F 14.3 °F 18.5 °F 84% 30.16 in 10.0 mi North 6.9 mph - N/A   Overcast
11:55 PM 23.0 °F 13.1 °F 17.6 °F 80% 30.16 in 10.0 mi NNW 9.2 mph - N/A   Overcast